This is the latest recevied weather packets stored in our database for station/object W7TJC. If no packets are shown the sender has not sent any weather packets the latest 10 day(s).
| Time | Temp. | Humidity | Pressure | Rain* | Wind** | Luminosity | Snow |
|---|---|---|---|---|---|---|---|
| 1777578797 | 20° C | 55% | 1020.4 hPa | 0 mm | - | 144 W/m² | - |
| 1777578493 | 20.56° C | 55% | 1020.4 hPa | 0 mm | - | 242 W/m² | - |
| 1777578188 | 20.56° C | 57% | 1020.6 hPa | 0 mm | - | 540 W/m² | - |
| 1777577884 | 20.56° C | 58% | 1020.7 hPa | 0 mm | - | 670 W/m² | - |
| 1777577580 | 19.44° C | 65% | 1020.6 hPa | 0 mm | - | 691 W/m² | - |
| 1777577277 | 18.33° C | 64% | 1020.6 hPa | 0 mm | - | 512 W/m² | - |
| 1777576973 | 18.33° C | 68% | 1020.6 hPa | 0 mm | - | 331 W/m² | - |
| 1777576669 | 18.33° C | 68% | 1020.9 hPa | 0 mm | - | 227 W/m² | - |
| 1777576369 | 17.78° C | 66% | 1020.7 hPa | 0 mm | - | 211 W/m² | - |
| 1777576066 | 17.78° C | 67% | 1021 hPa | 0 mm | - | 239 W/m² | - |
| 1777575762 | 17.78° C | 67% | 1020.9 hPa | 0 mm | - | 254 W/m² | - |
| 1777575458 | 17.78° C | 67% | 1021 hPa | 0 mm | - | 223 W/m² | - |
| 1777575154 | 17.22° C | 68% | 1021 hPa | 0 mm | - | 227 W/m² | - |
| 1777574849 | 17.22° C | 68% | 1021.1 hPa | 0 mm | - | 174 W/m² | - |
| 1777574548 | 17.78° C | 67% | 1021.3 hPa | 0 mm | - | 173 W/m² | - |
| 1777574243 | 17.78° C | 68% | 1021.1 hPa | 0 mm | - | 206 W/m² | - |
| 1777573939 | 18.33° C | 68% | 1021.2 hPa | 0 mm | - | 372 W/m² | - |
| 1777573634 | 17.78° C | 66% | 1021.3 hPa | 0 mm | - | 543 W/m² | - |
| 1777573330 | 17.78° C | 68% | 1021.3 hPa | 0 mm | - | 606 W/m² | - |
| 1777573026 | 17.22° C | 68% | 1021.2 hPa | 0 mm | - | 539 W/m² | - |
| 1777572723 | 16.67° C | 70% | 1021.4 hPa | 0 mm | - | 340 W/m² | - |
| 1777572418 | 16.67° C | 70% | 1021.4 hPa | 0 mm | - | 307 W/m² | - |
| 1777572114 | 16.11° C | 71% | 1021.3 hPa | 0 mm | - | 270 W/m² | - |
| 1777571808 | 16.11° C | 71% | 1021.5 hPa | 0 mm | - | 166 W/m² | - |
| 1777571505 | 16.11° C | 71% | 1021.5 hPa | 0 mm | - | 184 W/m² | - |
* Rain latest hour (hover to see other rain measurements)
** Current wind speed in m/s (hover to see current wind gust speed)